Theta_e
308 309 309 309 309 309 310 307 307 308 308 307 304 301 301 303 304 310 314 308 310 309 308 306 307 308 308 311 314 321 325 324 326 327 326 327 326 325 324 324 324 325 325 323 328
307 308 308 308 308 309 310 310 308 307 308 307 304 301 302 305 311 313 313 308 311 309 309 309 310 309 310 311 314 318 319 321 324 325 326 326 325 323 323 323 322 323 322 321 319
310 310 310 310 310 310 310 310 309 308 307 304 303 301 303 308 314 314 311 310 309 308 311 312 312 310 310 311 312 314 317 319 321 321 321 323 322 320 320 321 322 320 320 320 319
309 310 310 311 310 310 310 310 309 310 308 303 302 304 305 312 315 315 310 309 308 309 311 313 310 309 310 311 310 312 312 312 316 314 314 317 314 315 317 318 317 317 317 318 321
309 308 309 310 310 310 310 309 309 309 308 303 303 306 310 309 312 315 312 309 308 310 311 313 311 310 311 311 311 311 311 311 312 311 312 312 314 315 314 314 314 316 318 320 321
309 308 308 309 309 309 309 309 308 308 305 303 306 306 312 305 307 312 315 310 310 311 311 312 311 311 311 311 311 310 311 311 311 312 312 312 313 313 314 315 314 315 317 318 319
309 307 305 307 307 308 309 309 308 306 305 305 307 311 311 305 309 311 312 312 310 310 311 310 310 311 311 310 310 310 311 310 310 310 311 311 312 312 313 314 315 316 316 317 317
306 304 304 305 307 308 308 306 304 304 303 304 309 312 308 306 312 312 313 310 310 309 309 308 309 310 311 310 310 310 308 310 311 310 310 311 311 312 311 312 313 313 314 314 315
305 305 304 305 305 307 306 307 311 308 305 307 311 310 314 313 313 311 311 308 307 307 307 308 309 310 310 311 312 310 311 311 311 310 312 311 312 313 311 311 312 313 313 314 315
305 304 305 306 306 306 308 311 311 309 309 311 312 313 313 314 313 311 309 307 308 308 308 310 310 311 310 310 310 310 310 311 311 311 312 312 312 312 311 311 312 312 312 313 314
304 306 306 306 307 306 309 308 309 309 313 311 311 312 311 311 310 309 308 308 308 309 309 308 311 311 309 310 309 310 311 311 311 312 311 311 311 311 311 312 312 313 313 314 314
304 304 305 306 306 307 308 311 310 309 312 308 309 310 310 310 311 311 310 309 309 309 308 308 309 309 308 308 309 311 311 311 311 312 311 310 310 311 310 312 312 313 313 313 313
305 305 305 306 306 308 308 309 308 308 311 310 309 310 310 310 311 311 309 308 309 309 308 308 308 308 308 308 310 311 310 311 310 311 311 311 309 310 310 312 312 312 313 313 313
304 306 306 306 307 308 309 308 309 306 314 313 311 311 310 310 310 310 309 309 308 309 307 308 307 307 308 308 309 309 310 311 310 310 310 310 309 310 310 310 311 312 313 313 313
307 310 306 307 309 309 308 309 309 309 314 314 310 309 309 309 308 309 307 308 309 308 308 309 308 308 309 309 310 309 310 311 311 311 311 310 311 311 310 310 310 311 311 311 312
309 309 306 309 308 308 309 309 310 317 317 311 310 310 311 310 311 311 310 308 307 308 307 308 307 308 308 309 311 311 311 311 310 311 311 311 311 310 310 310 311 311 312 312 313
310 308 308 307 308 311 309 310 317 319 313 312 310 310 311 312 312 311 311 311 310 310 310 309 308 308 311 311 310 311 312 311 309 311 310 312 311 311 311 311 311 312 313 314 314
312 311 310 312 312 311 308 315 318 315 314 312 310 310 311 311 311 311 311 311 311 310 310 312 312 310 312 311 311 311 312 311 310 310 310 311 312 311 311 311 312 314 315 316 316
312 312 312 311 311 310 312 318 317 314 311 312 311 311 312 311 311 311 311 310 310 311 312 312 313 311 310 310 311 311 311 310 313 312 314 312 311 311 311 312 313 313 313 314 315
310 311 311 309 308 308 314 315 315 312 310 312 311 310 311 312 311 311 311 310 312 311 310 311 313 311 311 311 310 311 311 314 315 316 315 312 312 312 312 312 311 312 313 314 314
309 314 311 308 306 312 315 313 313 311 310 313 312 311 310 311 311 312 310 309 311 311 311 312 313 311 311 312 311 311 313 312 313 314 316 315 313 312 312 311 312 312 312 313 313
307 313 309 307 311 306 313 310 308 310 311 311 311 311 312 311 311 311 311 310 311 311 312 312 313 314 312 311 311 311 313 313 316 316 314 315 314 312 312 312 313 312 312 312 313
307 309 307 306 315 311 308 309 309 309 311 310 311 310 310 311 312 311 310 310 310 311 312 314 314 314 310 313 312 313 313 313 314 315 316 316 314 312 312 313 313 314 313 313 313
306 309 305 304 303 306 306 307 311 310 309 309 309 309 310 311 311 312 311 310 308 309 310 312 314 313 312 310 313 314 313 313 315 317 315 315 315 314 313 314 314 314 312 313 314
301 304 302 302 304 304 305 306 309 310 308 308 309 309 308 310 309 309 309 309 308 309 310 312 314 313 312 311 312 313 315 314 315 314 316 315 314 313 313 314 313 312 312 312 312
303 303 302 303 302 303 304 307 308 308 306 308 309 308 307 308 308 309 308 308 309 310 314 314 314 313 313 311 312 314 313 313 314 314 315 315 315 313 313 312 312 311 311 311 311
299 300 302 300 302 303 303 306 306 304 304 305 307 306 306 306 306 306 307 307 308 310 312 313 314 313 312 312 314 315 314 314 314 313 314 316 314 314 314 313 312 311 311 311 311
Wind_Speed
19 19 18 18 18 18 17 17 16 15 15 15 14 13 15 19 22 8 6 3 2 2 2 4 3 3 3 4 2 2 7 11 14 12 10 3 0 1 0 8 6 3 13 10 14
20 19 18 18 18 18 18 18 18 16 15 14 13 13 15 19 13 7 1 4 4 2 2 4 3 5 4 4 5 7 8 11 5 14 12 14 9 7 7 8 11 15 9 12 17
22 21 21 21 19 19 19 18 18 16 15 13 12 12 14 13 4 1 2 5 5 3 3 2 2 2 5 3 5 4 10 4 5 9 6 13 12 5 8 14 9 14 18 19 18
23 22 23 23 22 21 20 19 18 16 14 12 9 11 10 4 3 1 4 5 4 2 3 2 2 3 4 6 1 4 1 4 7 4 5 8 7 8 11 14 10 15 19 18 13
23 24 24 23 23 22 21 19 18 16 13 9 7 8 4 2 6 1 5 5 3 2 1 1 3 2 3 2 2 4 2 3 6 6 6 9 15 14 16 15 14 14 14 12 11
25 25 23 23 23 23 21 20 18 15 11 6 5 4 1 4 1 1 7 6 3 2 2 3 2 1 3 1 3 3 3 7 7 8 7 10 18 6 8 10 14 18 20 14 13
25 25 24 25 24 23 22 20 18 14 8 5 3 1 1 8 2 3 5 7 7 5 2 3 3 2 3 2 1 2 4 6 10 5 6 7 17 13 12 10 13 10 10 8 8
25 28 26 25 25 24 21 19 16 12 8 5 3 2 5 3 6 8 6 5 8 7 6 4 5 3 1 3 1 1 1 2 2 0 3 5 8 4 11 10 7 12 9 8 10
29 28 27 25 24 22 20 8 4 4 6 9 4 3 3 7 2 3 5 2 1 2 3 3 2 2 2 1 3 3 1 1 2 4 6 2 5 8 10 8 12 11 9 9 9
30 31 28 26 22 19 7 7 10 9 10 5 1 3 3 2 4 5 3 7 2 3 3 2 2 2 2 2 3 2 2 1 4 3 8 9 11 13 13 9 9 10 9 8 9
30 29 28 24 18 12 3 2 1 2 2 4 1 3 4 8 3 2 3 4 1 3 1 2 3 4 4 4 2 3 3 2 3 2 9 13 17 16 15 13 11 9 9 7 7
31 29 26 21 8 2 4 2 2 2 4 4 7 6 7 2 3 3 3 3 2 1 2 3 5 6 4 3 5 5 4 4 5 6 9 15 21 19 16 14 15 12 9 8 5
33 30 23 11 5 5 5 3 9 6 2 4 3 3 2 7 3 4 7 3 4 3 3 2 3 6 4 4 5 5 5 3 5 4 11 10 14 4 7 9 10 10 11 9 10
30 25 15 6 4 1 1 9 9 6 2 2 1 3 4 3 3 5 8 3 2 3 3 5 1 4 4 5 6 7 6 4 7 9 8 4 7 10 8 9 10 14 13 12 11
23 16 10 1 3 1 6 14 1 2 2 1 2 4 4 4 3 2 2 2 11 7 4 3 3 3 7 6 7 3 2 5 8 12 7 7 6 4 9 9 9 9 11 14 16
17 11 5 4 4 6 13 5 1 2 1 1 2 2 1 1 3 4 3 2 1 6 7 9 1 4 5 2 4 2 3 7 2 3 5 1 4 7 5 5 4 12 14 13 9
11 8 5 4 4 12 11 1 1 2 3 1 0 1 1 2 1 3 1 1 4 5 9 3 4 2 3 5 3 2 4 5 3 3 4 5 8 13 7 11 15 13 11 10 6
7 5 4 6 10 11 3 1 3 1 1 3 2 3 4 2 1 3 1 3 3 2 2 5 7 7 5 5 3 5 4 5 5 4 8 10 11 2 2 6 11 8 9 8 7
4 4 3 11 10 9 0 1 2 2 2 4 7 4 3 3 3 3 2 5 4 4 6 5 5 2 5 2 3 3 6 4 11 11 9 8 12 17 12 8 9 11 13 14 11
4 3 2 15 8 3 0 2 2 2 2 2 4 4 5 3 3 2 3 1 2 2 1 1 5 5 5 3 6 10 6 3 3 5 6 8 16 14 13 13 11 13 13 10 9
3 0 4 13 2 3 1 2 3 4 2 4 4 6 5 5 7 4 4 3 4 4 1 3 4 5 4 7 10 5 8 3 3 5 5 8 7 5 11 7 11 11 13 15 17
2 1 9 6 1 1 1 3 5 4 1 3 3 4 4 3 4 6 8 6 1 5 3 3 2 7 11 12 10 10 10 10 6 6 7 9 16 14 15 13 9 13 16 20 20
2 2 7 5 1 2 4 4 4 3 3 2 3 1 0 2 4 7 4 1 2 4 2 4 3 5 5 4 4 4 9 7 7 2 15 11 11 6 10 17 22 22 20 20 18
2 3 3 4 2 2 4 3 4 3 3 3 3 1 2 3 5 4 2 1 1 5 6 3 8 12 12 9 2 10 13 12 11 5 15 19 33 26 23 20 21 19 20 20 17
4 2 1 4 2 4 1 3 5 4 3 3 2 6 4 3 4 6 6 6 7 15 7 7 12 14 18 20 19 20 22 23 21 23 14 27 26 27 20 21 20 16 18 19 20
2 2 1 2 3 3 3 2 3 3 3 4 5 7 6 6 9 16 17 12 11 3 4 5 4 8 15 17 19 22 23 24 25 24 24 28 31 24 22 16 19 20 17 20 21
3 1 2 0 1 2 1 1 1 5 5 8 6 11 15 15 14 14 13 15 14 9 5 4 3 3 13 10 9 14 21 18 12 11 13 18 20 17 18 19 19 24 22 23 23
Wind_Direction
347 344 342 339 336 334 330 327 323 322 320 320 320 321 322 322 320 314 237 223 358 178 347 336 80 125 140 158 218 172 220 232 226 219 230 190 246 216 1 292 300 300 309 334 342
349 346 342 338 334 331 327 323 321 319 317 318 319 321 324 329 322 269 273 165 153 115 54 66 128 136 144 182 163 222 225 220 227 234 235 232 255 289 291 288 286 294 296 321 335
346 344 339 335 331 327 325 322 317 316 315 315 316 320 328 333 286 312 117 143 145 116 68 74 109 140 151 189 165 180 249 205 169 252 267 265 270 233 285 277 285 303 313 319 321
343 339 336 334 330 328 325 321 315 311 309 311 313 322 335 336 164 85 157 152 144 110 61 85 92 126 137 184 147 193 231 288 245 283 306 272 306 244 231 266 291 290 291 292 296
342 339 335 332 329 326 323 320 314 307 304 302 309 332 0 258 252 145 179 183 170 125 53 84 71 123 131 145 203 204 179 292 295 295 288 288 269 282 283 275 283 292 292 283 290
340 338 334 331 329 326 323 318 312 304 297 296 308 348 306 255 204 86 187 197 212 193 171 190 152 152 114 138 258 171 235 275 279 262 252 260 266 274 253 324 307 297 288 284 294
338 337 334 330 327 325 321 317 308 296 282 268 285 93 241 246 185 237 204 224 236 213 207 216 177 199 147 155 263 295 278 274 244 253 244 263 263 259 287 247 258 298 301 318 324
337 338 333 329 326 323 320 316 301 278 243 212 173 166 255 247 280 262 252 249 242 237 242 287 183 107 276 117 83 191 157 242 100 236 53 215 245 261 20 344 329 320 304 318 331
336 334 331 327 326 325 325 330 22 59 155 152 153 209 262 302 261 321 230 235 201 200 239 114 145 88 134 211 167 37 142 355 311 64 24 1 293 288 336 325 310 306 298 306 311
336 333 330 327 327 329 9 95 91 85 106 130 207 252 254 347 309 302 272 241 248 144 137 153 78 162 141 215 191 139 142 206 313 343 339 304 279 286 296 286 275 285 286 283 293
335 332 329 327 327 332 120 135 234 144 189 243 300 287 301 328 290 213 95 134 120 70 177 41 208 196 170 203 176 174 184 250 284 266 322 301 293 287 284 283 274 262 270 267 273
335 333 330 327 337 14 85 88 88 292 312 250 254 257 271 281 304 282 182 196 183 230 149 186 242 217 168 196 187 195 204 231 278 277 310 301 293 286 269 261 256 251 240 250 264
339 336 334 338 120 83 76 72 341 169 263 293 205 195 201 175 228 263 186 170 221 236 212 245 106 144 198 183 214 220 240 226 280 288 270 299 287 246 279 243 239 236 246 259 248
345 343 348 105 105 79 52 340 335 187 315 41 147 155 144 168 261 217 203 184 186 270 184 264 119 195 195 259 227 271 214 247 290 316 311 345 289 240 262 246 252 262 264 256 250
353 356 3 104 106 89 325 329 318 195 177 325 110 136 150 209 335 83 173 175 232 198 191 222 213 272 281 272 192 276 215 297 298 294 295 266 257 172 180 264 256 261 268 275 282
2 10 28 55 59 349 335 337 133 234 183 94 82 348 233 171 150 328 44 53 63 201 230 263 237 249 250 145 175 102 278 283 237 251 258 278 252 284 236 183 217 301 285 281 279
12 30 63 37 342 338 342 103 221 228 355 109 244 349 251 304 355 42 24 47 235 222 229 217 207 196 198 175 152 151 295 299 257 214 283 176 271 257 248 268 292 288 287 294 267
11 35 41 23 341 341 356 165 225 123 309 347 295 301 228 355 228 340 252 245 212 194 207 230 235 187 170 226 237 223 244 267 287 264 294 242 256 239 16 278 280 275 281 289 284
10 22 46 345 338 338 354 200 221 186 310 304 310 265 218 211 306 310 243 262 237 189 231 205 243 292 211 173 210 171 230 329 262 278 275 243 261 279 276 302 287 275 258 274 288
349 346 13 340 330 4 74 243 221 244 322 233 246 237 240 229 269 254 287 226 212 175 20 174 269 241 272 282 215 224 146 195 196 265 264 265 272 261 294 306 291 284 280 287 290
36 272 5 345 47 48 283 264 274 263 283 242 256 256 244 250 232 222 255 272 198 164 182 180 240 249 240 213 236 188 219 214 271 241 268 295 273 202 295 318 309 297 303 311 312
25 274 352 13 19 50 287 318 321 266 227 276 262 251 239 208 229 235 240 233 119 167 222 211 235 259 266 270 268 254 247 226 228 209 234 278 274 285 278 302 329 309 306 300 300
30 300 353 4 49 350 323 288 273 278 250 275 274 244 152 232 259 238 233 129 198 196 218 184 222 286 275 155 122 192 189 208 238 267 248 255 265 203 302 309 305 303 303 301 301
343 356 5 48 45 40 338 277 288 324 269 314 285 262 234 246 231 271 255 284 250 277 308 254 243 248 256 296 292 266 257 245 243 235 264 247 272 281 288 292 299 300 308 307 302
6 65 64 322 39 344 289 302 292 294 3 314 263 68 21 274 264 264 283 275 260 283 274 227 252 247 260 270 275 272 271 271 261 248 250 273 272 278 286 287 301 301 302 301 298
11 337 132 285 285 283 196 231 287 311 315 304 274 345 324 273 267 275 274 266 262 242 210 200 244 254 265 262 259 267 268 262 259 261 260 263 270 276 279 291 298 306 307 301 297
26 346 284 193 267 271 224 300 331 345 284 252 300 303 287 286 293 280 279 268 257 249 250 253 237 273 275 293 284 270 258 263 250 245 251 265 275 291 298 303 302 305 302 292 298